Temperature
25 26 27 27 27 27 27 26 26 26 26 26 26 26 25 25 24 24 23 23 22 21 20 19 18 17 16 15 14 14 13 13 12 12 12 12 12 11 11 11 11 11 11 11
24 26 26 27 27 27 27 27 26 26 25 25 25 24 24 24 23 23 23 22 22 21 20 19 18 17 16 15 14 14 13 13 12 12 12 12 12 11 11 11 11 11 11 11
23 25 26 25 27 27 26 26 25 23 23 23 23 23 22 22 22 22 22 22 21 21 20 19 18 17 16 15 14 14 13 13 12 12 12 12 12 11 11 11 11 11 11 11
23 24 23 26 27 27 25 23 22 22 21 21 21 21 21 21 21 21 21 21 20 20 19 19 18 17 16 15 14 14 13 13 13 12 12 12 12 11 11 11 11 11 11 11
23 23 24 26 25 24 23 21 19 19 19 19 19 20 21 20 19 19 19 19 19 19 19 19 18 17 16 15 14 14 14 13 13 12 12 12 12 12 11 11 11 11 11 11
22 22 22 21 22 23 23 21 17 17 17 17 17 17 17 17 17 17 18 18 18 18 18 18 18 17 16 15 14 14 14 13 13 13 12 12 12 12 11 11 11 11 11 11
22 21 22 19 20 21 19 15 14 15 14 14 14 14 14 14 14 15 16 16 17 17 17 17 17 16 16 15 14 14 14 13 13 13 12 12 12 12 11 11 11 11 11 11
22 21 18 15 16 14 13 13 13 12 12 12 12 12 12 12 12 13 13 14 15 16 16 16 16 16 15 15 14 14 13 13 13 13 12 12 12 12 11 11 11 11 11 11
20 16 12 11 11 10 10 10 10 11 11 11 11 11 11 11 11 11 11 12 13 13 14 15 15 15 15 14 14 13 13 13 13 12 12 12 12 12 11 11 11 11 10 10
18 13 12 11 10 9 9 9 9 10 10 10 10 10 10 10 10 10 10 10 11 11 12 12 13 14 14 14 14 13 13 13 12 12 12 12 12 12 11 11 11 11 10 10
15 11 11 11 10 9 9 9 9 10 10 10 10 10 10 10 10 10 9 10 10 10 10 10 11 12 13 13 13 13 13 12 12 12 12 12 12 12 11 11 11 11 11 11
11 9 9 9 9 9 9 9 9 10 10 10 10 10 10 10 9 9 9 9 9 9 9 10 10 11 12 12 13 13 12 12 12 12 12 12 11 11 11 11 11 11 11 11
8 8 8 8 8 9 9 10 10 10 11 11 11 10 10 10 9 9 9 9 9 9 9 9 9 10 11 11 12 12 12 12 12 12 12 12 11 11 11 11 11 11 11 11
9 8 8 9 10 10 11 11 11 11 11 11 11 10 10 10 10 9 9 9 8 8 8 8 9 9 10 10 11 12 12 12 12 12 12 12 11 11 11 11 11 11 11 11
10 10 10 11 11 11 12 12 12 12 11 11 11 10 10 10 10 9 9 9 9 8 8 8 8 8 9 9 10 11 12 12 12 12 12 12 12 11 11 11 10 10 10 10
11 11 12 12 12 12 12 12 12 11 11 11 10 10 9 9 9 9 9 9 9 8 8 8 8 8 8 9 9 10 11 12 12 12 12 12 12 12 12 11 11 10 10 10
12 12 12 12 11 11 11 11 11 11 10 10 9 9 8 8 8 8 8 8 8 8 8 8 8 8 8 8 9 10 11 12 12 12 12 13 13 12 12 12 11 11 10 10
11 11 11 11 11 11 10 10 10 10 9 9 8 7 7 7 7 7 7 7 7 7 8 8 8 8 8 8 8 9 10 12 12 12 13 13 13 13 13 12 12 12 11 10
11 11 10 10 10 10 9 9 9 8 8 7 6 6 6 6 6 6 6 6 6 7 7 8 8 8 8 8 8 9 10 11 12 12 13 13 13 13 13 13 12 12 11 11
10 10 10 10 9 9 9 8 8 7 7 6 5 5 5 5 5 5 5 5 6 7 7 7 8 7 7 8 8 8 10 11 12 12 12 13 13 13 13 13 13 12 12 11
10 9 9 9 9 8 8 8 7 6 6 5 4 4 4 4 4 4 5 5 6 6 7 7 7 7 7 7 8 8 9 10 11 12 12 13 13 13 13 13 13 13 13 12
9 9 9 9 9 8 8 7 6 6 5 4 4 3 3 3 4 4 4 5 6 6 7 7 7 7 7 7 8 8 9 10 11 12 12 13 13 13 13 13 13 13 13 13
9 9 9 9 8 8 8 7 6 5 4 4 3 3 3 3 3 4 4 5 6 6 7 7 7 7 7 7 7 8 9 10 11 12 12 13 13 13 13 13 13 13 13 13
9 9 9 9 8 8 7 7 6 5 4 4 3 3 3 3 4 4 5 5 6 6 6 7 7 7 7 7 7 8 8 9 10 11 12 13 13 13 13 13 13 13 13 13
9 9 9 8 8 7 7 6 5 5 4 4 4 4 4 4 4 4 5 5 6 6 6 7 7 7 7 7 7 8 8 9 10 11 12 12 13 13 13 13 13 13 13 13
9 9 8 8 8 7 6 6 5 4 4 4 4 4 4 4 5 5 5 6 6 6 7 7 7 7 7 7 7 8 9 9 10 11 12 12 13 13 13 13 13 13 13 13
8 8 8 7 7 6 6 5 4 4 4 4 4 4 5 5 5 5 6 6 7 7 7 8 8 8 8 8 8 8 9 10 10 11 11 12 12 13 13 13 13 13 13 13
Wind_Speed
16 19 20 21 20 19 18 17 18 19 18 16 13 13 12 11 11 12 11 9 6 3 3 3 4 4 5 5 4 3 3 3 2 2 2 2 3 2 2 2 2 2 2 3
18 19 21 21 20 18 14 13 13 15 15 16 16 16 15 14 14 14 13 11 8 5 3 4 5 5 5 5 5 5 5 4 4 4 4 4 4 4 2 1 2 2 3 4
17 19 18 16 11 8 8 11 13 14 15 18 17 18 17 16 16 15 13 11 8 6 4 4 5 5 5 5 5 6 6 5 5 6 6 6 6 6 4 3 3 3 4 7
14 16 16 10 10 9 7 12 17 17 19 20 20 20 17 16 15 16 15 12 9 7 5 5 5 6 7 7 7 7 7 6 7 8 8 8 7 6 6 4 4 4 5 7
10 14 14 10 12 9 7 7 20 19 20 22 23 22 18 19 21 18 16 13 10 8 8 6 6 7 8 8 8 8 7 7 8 9 10 10 9 8 6 6 5 5 6 7
11 15 15 9 16 14 9 4 20 21 21 23 23 18 17 23 25 23 18 13 10 10 8 7 7 7 8 9 9 9 7 7 8 9 11 12 10 9 7 6 6 6 7 7
13 14 5 13 16 13 7 10 20 21 21 21 18 17 21 24 24 23 21 18 13 10 8 6 6 8 9 10 10 8 7 6 8 10 11 11 10 9 8 8 8 7 8 7
10 11 4 18 11 9 9 13 16 18 19 20 21 22 24 24 24 23 23 21 19 13 9 7 7 9 10 11 9 8 7 7 8 10 11 12 12 10 10 9 9 8 7 8
5 5 8 14 11 10 11 13 15 17 19 20 22 22 23 23 23 22 22 21 20 18 14 10 7 8 11 11 9 8 8 8 8 10 10 11 13 13 11 10 10 10 10 9
4 8 7 10 12 11 12 13 15 17 18 19 20 22 22 21 20 21 21 20 18 19 18 16 11 8 10 10 10 10 9 8 9 10 10 11 11 11 11 12 11 11 11 10
5 8 10 10 14 14 15 16 17 19 19 20 21 22 22 21 20 18 19 18 17 17 17 18 15 12 11 10 11 11 11 10 10 11 11 11 11 10 11 10 10 10 9 9
5 7 8 12 13 17 18 19 20 21 23 23 22 22 22 21 18 18 19 18 18 18 17 16 17 14 12 10 11 12 11 11 10 10 10 10 11 8 4 5 9 11 10 9
5 9 12 16 19 20 21 23 24 24 25 25 23 22 22 20 19 19 20 20 19 19 19 17 16 16 13 12 11 12 12 11 11 11 11 12 11 11 9 6 8 10 13 15
11 13 16 18 21 22 24 26 26 26 25 24 23 22 21 21 20 19 19 20 20 18 18 17 16 15 14 14 12 12 14 13 12 11 11 12 12 12 12 12 10 7 7 14
13 15 19 23 24 24 24 25 26 25 25 24 23 23 22 22 22 21 19 19 18 18 18 17 16 15 12 14 12 13 14 12 12 12 12 12 13 13 13 14 13 12 10 7
18 20 22 24 25 26 26 26 25 25 25 24 23 22 22 23 23 22 20 19 18 19 17 16 15 13 11 13 13 11 13 16 14 13 13 12 12 13 13 13 13 13 14 12
21 22 24 25 26 27 26 26 25 25 25 25 24 24 24 24 24 24 22 20 18 17 17 15 15 12 11 11 12 10 12 15 16 14 13 12 12 12 12 13 13 13 14 16
21 23 24 25 25 26 27 26 25 25 24 24 25 24 24 24 24 24 24 22 21 20 18 16 13 11 10 11 10 10 10 13 15 15 12 11 11 11 12 12 14 14 13 15
23 24 25 25 26 25 25 25 25 25 24 23 24 24 24 24 23 23 23 22 22 20 17 15 11 10 10 10 10 9 11 13 14 15 13 12 12 11 11 12 13 13 13 15
24 25 26 26 26 25 25 25 25 23 23 23 24 24 24 24 23 23 22 21 18 16 15 13 11 9 9 8 8 8 10 11 12 14 13 12 13 12 11 12 13 13 13 15
25 26 27 26 26 26 25 24 23 23 23 23 23 24 24 24 23 22 19 18 17 16 15 12 9 8 5 5 5 7 9 9 9 12 14 13 13 12 12 11 12 12 12 14
25 25 27 26 26 25 23 21 21 23 23 23 24 24 24 24 23 21 20 17 16 15 12 10 8 6 3 4 3 5 6 7 8 10 11 12 12 12 11 11 11 11 11 11
24 25 26 26 25 25 24 22 21 20 22 23 23 23 23 21 18 17 17 14 13 12 10 9 7 6 4 3 3 4 6 6 7 8 9 10 11 12 12 12 10 10 10 10
24 24 25 25 24 23 23 22 21 19 21 22 21 22 21 18 16 14 14 15 14 13 11 9 8 9 7 4 3 3 5 5 6 7 9 9 10 11 12 11 11 10 10 11
24 24 24 24 22 19 20 20 22 22 22 18 21 21 18 14 15 14 14 14 13 12 11 10 13 12 8 5 4 4 5 5 6 6 6 7 9 9 9 10 10 9 10 10
21 20 20 19 17 16 17 17 18 18 19 19 19 18 17 15 15 13 11 13 13 11 10 8 9 10 9 7 6 6 6 6 7 7 6 7 8 8 9 10 11 9 9 9
22 19 16 19 19 18 19 19 19 19 19 19 21 20 18 16 13 11 11 10 8 8 9 8 8 9 9 8 8 7 6 6 7 7 7 7 6 6 7 8 8 8 7 8
Wind_Direction
292 298 299 297 294 291 287 286 289 298 305 324 343 345 344 340 331 319 312 305 295 269 224 220 244 251 255 254 238 232 247 249 216 175 153 135 122 108 82 57 75 64 77 79
290 291 293 291 289 287 291 302 314 324 333 352 354 354 351 344 333 321 313 307 305 304 271 233 234 244 247 239 228 217 230 233 205 185 183 168 161 155 147 121 93 93 94 96
292 298 299 293 303 313 322 343 349 346 350 356 357 356 350 341 332 327 325 322 319 310 286 235 224 223 227 236 226 217 223 223 206 193 191 181 177 168 166 164 154 125 101 94
285 290 286 299 1 359 2 28 16 8 2 358 350 343 332 338 353 346 333 322 316 306 286 251 223 208 210 225 226 224 222 220 205 195 193 185 183 178 170 169 159 143 123 117
285 288 292 329 24 13 349 32 26 7 356 350 343 333 329 346 344 334 325 317 305 288 272 247 225 212 213 221 226 229 227 218 204 196 191 186 184 179 172 167 161 153 138 131
275 288 295 360 6 350 316 286 17 1 354 349 346 335 330 336 331 327 321 311 302 292 280 255 225 209 216 225 228 230 228 215 198 191 189 187 183 179 171 166 168 163 150 145
264 270 280 17 8 357 340 340 353 353 351 348 342 329 326 331 332 331 328 323 313 303 282 257 229 207 214 228 230 227 221 207 188 187 188 184 176 174 170 171 173 168 156 153
297 293 346 16 34 38 355 345 349 348 346 341 334 330 330 330 329 330 329 328 327 317 304 274 239 216 215 223 225 220 212 201 185 184 187 182 173 174 175 175 171 164 160 158
14 64 77 48 47 23 360 349 344 339 336 332 327 325 325 324 324 325 326 328 330 329 319 302 266 233 225 221 215 215 207 197 186 187 189 174 174 176 177 177 177 174 174 174
62 66 46 42 20 3 351 338 331 327 323 321 317 315 314 315 316 319 320 321 325 326 323 317 307 268 237 222 210 208 206 194 183 185 183 177 178 179 180 183 185 183 182 181
17 9 348 353 349 338 330 324 319 316 312 309 307 308 310 310 310 312 314 316 319 319 319 316 308 296 261 227 209 208 204 194 188 187 184 181 183 184 187 189 192 188 185 177
350 340 316 309 312 311 307 304 303 303 303 303 304 304 305 306 307 307 307 310 311 312 313 316 315 302 292 254 213 204 204 197 191 186 183 181 175 161 84 154 157 157 155 157
285 290 286 285 288 290 291 295 298 300 302 304 305 304 303 302 302 302 303 304 305 307 309 310 312 311 303 280 236 208 205 196 191 188 183 182 177 170 155 105 96 120 137 139
281 282 287 290 295 297 298 299 300 300 301 301 302 302 301 299 298 299 301 301 302 302 303 305 306 304 308 295 258 219 208 199 191 189 185 184 182 179 175 171 165 146 120 135
293 289 290 295 298 301 303 304 305 305 305 305 304 303 303 303 301 300 299 299 298 297 298 300 302 301 304 307 275 231 211 203 194 192 190 188 185 184 183 181 179 172 153 140
306 305 305 308 310 312 312 313 313 313 313 312 311 309 308 306 304 302 301 301 299 296 296 295 294 297 300 308 294 250 218 207 192 192 192 190 188 187 184 183 182 177 173 168
316 318 320 320 319 317 317 318 315 315 316 315 315 314 312 309 306 303 301 298 296 293 290 288 288 292 299 298 294 264 224 206 195 194 196 191 188 189 185 184 186 183 179 173
323 321 320 319 318 318 318 318 318 317 315 316 316 314 309 306 303 301 300 299 296 293 288 285 284 286 292 293 291 276 242 207 196 199 198 193 187 188 186 185 186 185 180 170
325 324 323 322 321 319 319 318 317 317 317 316 313 310 307 304 302 301 298 296 294 290 287 285 281 281 284 286 289 272 249 217 194 195 199 190 188 190 189 186 187 186 179 171
325 324 323 322 322 321 318 317 317 317 318 317 313 309 306 305 303 300 296 291 285 282 284 283 274 274 280 283 294 280 252 223 195 187 196 195 193 193 193 190 188 188 183 176
324 324 323 321 320 319 318 318 319 318 317 315 312 308 307 305 302 298 294 290 286 281 280 274 264 265 277 290 287 278 253 219 200 191 194 196 191 192 195 193 191 192 189 183
323 322 320 320 318 318 319 320 320 319 317 314 312 309 306 303 301 298 289 284 282 275 271 267 258 251 253 281 281 277 259 236 211 200 196 195 190 191 197 198 194 193 192 189
321 319 320 320 318 318 319 321 321 320 316 314 311 306 302 299 296 293 291 286 283 273 265 263 244 207 208 246 266 260 255 251 230 202 197 197 193 191 197 202 197 194 193 192
320 321 321 320 320 321 322 323 323 320 315 312 306 303 300 298 293 288 283 282 274 265 262 252 214 204 203 225 242 249 244 247 242 210 199 199 199 196 195 199 201 197 196 196
323 323 322 324 324 325 324 325 324 322 318 314 309 307 303 295 291 288 285 282 275 259 255 234 205 204 208 215 218 233 241 246 250 231 207 206 205 199 192 194 199 199 198 198
326 323 324 322 326 325 327 327 324 320 319 317 315 313 310 304 294 286 279 273 264 249 249 237 208 206 214 212 213 222 229 236 240 234 218 213 212 206 198 197 199 201 199 200
326 326 325 327 329 331 330 326 322 320 318 317 317 316 313 309 302 292 280 272 259 243 237 233 218 210 214 211 211 216 226 230 224 220 219 215 216 216 207 199 199 196 196 196
Height
1492 1485 1481 1478 1475 1471 1473 1473 1478 1474 1471 1467 1465 1465 1466 1466 1467 1467 1467 1467 1466 1466 1466 1467 1467 1467 1467 1466 1465 1464 1462 1461 1460 1458 1457 1456 1456 1456 1457 1457 1457 1457 1458 1459
1493 1484 1477 1473 1467 1465 1465 1466 1468 1469 1471 1467 1467 1467 1467 1467 1467 1466 1464 1464 1463 1463 1463 1463 1463 1463 1463 1462 1462 1461 1460 1459 1458 1457 1456 1456 1457 1457 1458 1459 1459 1460 1461 1462
1496 1483 1479 1479 1466 1464 1466 1468 1473 1479 1478 1473 1472 1473 1472 1470 1467 1464 1463 1461 1461 1460 1460 1459 1459 1458 1458 1458 1458 1457 1457 1457 1456 1455 1455 1456 1457 1458 1459 1460 1461 1462 1463 1465
1495 1491 1497 1474 1461 1463 1468 1477 1480 1481 1481 1480 1479 1477 1474 1471 1468 1466 1463 1461 1459 1458 1456 1455 1454 1453 1453 1453 1454 1453 1453 1453 1453 1453 1453 1454 1456 1457 1459 1461 1462 1463 1465 1466
1495 1492 1482 1469 1470 1473 1477 1484 1491 1489 1487 1485 1481 1477 1473 1472 1470 1467 1464 1460 1457 1454 1452 1450 1449 1449 1448 1448 1449 1449 1449 1449 1449 1449 1450 1452 1454 1456 1458 1460 1462 1464 1466 1468
1494 1498 1497 1489 1480 1477 1478 1483 1496 1494 1492 1489 1483 1481 1477 1475 1471 1465 1460 1456 1452 1449 1447 1445 1444 1443 1443 1443 1443 1444 1444 1444 1445 1445 1446 1448 1451 1454 1457 1459 1462 1464 1466 1468
1492 1492 1485 1495 1488 1484 1494 1505 1501 1498 1495 1493 1491 1489 1482 1475 1468 1463 1457 1452 1447 1443 1440 1439 1438 1437 1437 1437 1438 1438 1439 1440 1440 1441 1443 1445 1448 1451 1454 1458 1461 1463 1466 1468
1484 1490 1500 1505 1499 1507 1514 1510 1506 1502 1498 1495 1490 1485 1478 1471 1465 1459 1453 1447 1442 1438 1433 1432 1430 1429 1429 1430 1431 1433 1433 1434 1435 1436 1439 1441 1445 1448 1452 1455 1459 1462 1464 1467
1490 1506 1516 1513 1514 1516 1514 1510 1506 1502 1497 1493 1487 1482 1475 1469 1463 1456 1450 1444 1439 1434 1429 1425 1423 1422 1421 1422 1425 1427 1428 1429 1430 1432 1435 1438 1440 1444 1448 1452 1456 1459 1462 1465
1496 1510 1512 1513 1513 1513 1510 1507 1503 1498 1493 1489 1484 1477 1471 1465 1459 1453 1447 1440 1435 1429 1424 1420 1417 1414 1413 1415 1418 1420 1422 1423 1425 1427 1430 1433 1437 1440 1444 1448 1452 1455 1459 1462
1503 1513 1512 1510 1510 1508 1504 1501 1496 1492 1488 1483 1478 1472 1466 1460 1454 1449 1443 1437 1431 1426 1420 1415 1410 1407 1406 1407 1410 1413 1415 1417 1419 1422 1425 1429 1432 1436 1440 1444 1448 1452 1455 1459
1518 1520 1518 1512 1507 1504 1500 1496 1491 1486 1480 1476 1472 1466 1461 1455 1450 1444 1438 1432 1427 1421 1415 1410 1405 1401 1400 1400 1402 1405 1408 1411 1413 1416 1420 1424 1428 1432 1437 1441 1445 1449 1452 1456
1520 1517 1514 1509 1504 1500 1495 1490 1485 1480 1474 1468 1463 1459 1453 1448 1442 1437 1432 1427 1421 1415 1410 1405 1399 1395 1394 1393 1394 1397 1401 1404 1407 1410 1414 1418 1423 1427 1431 1436 1441 1445 1449 1452
1516 1513 1508 1504 1499 1494 1488 1483 1477 1472 1466 1461 1456 1451 1446 1440 1435 1430 1425 1420 1415 1409 1404 1399 1394 1390 1388 1386 1387 1389 1393 1397 1401 1404 1408 1413 1418 1422 1427 1430 1435 1440 1444 1448
1512 1508 1503 1496 1490 1485 1480 1474 1468 1462 1457 1452 1448 1443 1438 1432 1427 1422 1417 1413 1407 1402 1398 1394 1389 1385 1381 1380 1378 1382 1386 1391 1395 1399 1403 1408 1413 1418 1422 1427 1431 1435 1439 1443
1506 1501 1496 1490 1484 1478 1472 1467 1461 1455 1450 1445 1440 1435 1430 1425 1419 1414 1410 1405 1400 1395 1390 1386 1383 1379 1376 1373 1372 1375 1379 1384 1388 1393 1398 1403 1407 1412 1417 1421 1426 1430 1433 1436
1500 1494 1489 1483 1478 1472 1466 1461 1456 1450 1444 1438 1433 1427 1422 1416 1411 1405 1401 1397 1392 1387 1383 1379 1376 1373 1370 1367 1365 1367 1371 1377 1382 1387 1392 1397 1402 1407 1411 1416 1420 1425 1428 1431
1498 1492 1486 1480 1474 1467 1461 1455 1450 1444 1438 1432 1426 1420 1414 1408 1401 1395 1391 1386 1382 1378 1375 1372 1369 1366 1364 1361 1359 1360 1364 1370 1376 1381 1387 1392 1396 1401 1406 1410 1415 1419 1424 1427
1493 1487 1482 1476 1470 1463 1456 1450 1444 1438 1431 1424 1418 1411 1405 1398 1392 1386 1381 1376 1372 1368 1365 1364 1362 1360 1357 1354 1353 1354 1356 1362 1369 1375 1381 1386 1392 1396 1401 1406 1410 1415 1419 1422
1488 1482 1476 1470 1464 1458 1451 1444 1437 1430 1423 1417 1409 1401 1394 1388 1382 1376 1371 1366 1363 1360 1357 1356 1354 1352 1351 1348 1347 1347 1350 1356 1362 1369 1376 1381 1386 1391 1396 1401 1405 1410 1414 1417
1483 1477 1470 1464 1457 1451 1444 1437 1430 1422 1415 1408 1400 1392 1384 1377 1372 1366 1361 1356 1352 1351 1349 1348 1346 1345 1344 1342 1342 1341 1344 1350 1357 1364 1370 1376 1381 1386 1391 1396 1400 1404 1409 1412
1478 1471 1464 1458 1450 1443 1436 1430 1423 1414 1406 1398 1390 1382 1374 1367 1361 1355 1351 1347 1344 1343 1342 1341 1340 1339 1338 1337 1337 1338 1340 1346 1353 1360 1366 1371 1376 1382 1387 1391 1395 1400 1404 1408
1472 1465 1458 1451 1444 1436 1429 1422 1415 1407 1398 1389 1380 1372 1364 1357 1352 1346 1340 1338 1337 1335 1335 1335 1334 1334 1334 1334 1335 1336 1339 1344 1350 1355 1361 1367 1372 1377 1382 1387 1391 1395 1399 1404
1466 1459 1452 1445 1438 1430 1422 1414 1407 1399 1390 1381 1371 1363 1355 1347 1340 1337 1333 1330 1329 1329 1329 1329 1330 1330 1331 1331 1332 1334 1337 1341 1347 1352 1358 1363 1369 1373 1378 1383 1387 1391 1395 1399
1461 1454 1446 1439 1432 1424 1416 1408 1400 1390 1381 1371 1362 1353 1346 1339 1332 1327 1325 1323 1323 1323 1324 1325 1326 1327 1328 1328 1329 1331 1335 1339 1344 1349 1354 1359 1365 1369 1374 1378 1383 1387 1391 1395
1456 1449 1442 1436 1429 1421 1413 1404 1395 1385 1375 1364 1354 1345 1337 1330 1324 1320 1318 1317 1317 1318 1320 1321 1322 1323 1324 1326 1328 1330 1333 1337 1342 1347 1351 1356 1361 1366 1370 1375 1379 1383 1387 1390
1452 1445 1438 1431 1424 1417 1410 1401 1391 1380 1370 1360 1349 1339 1330 1323 1318 1315 1313 1313 1314 1314 1316 1318 1319 1320 1322 1324 1326 1328 1331 1335 1339 1344 1349 1353 1358 1362 1367 1371 1375 1379 1382 1386